Accueil
METAR-TAF:

METAR-TAF

Aéroports :

Aéroport de Lannion-Côte de Granit

Lannion, France

latitude: 48-45N, longitude: 003-28W, altitude: 89 m

Observation

Le bulletin a été fait il y a 28 minutes, à 18:00 UTC
Vent 14 kt de nord-ouest
Température 15°C
Humidité 72%
Pression 1017 hPa
Visibilité: 8000 m
Quelques nuages à une hauteur de 1900 ft

METAR: LFRO 301800Z AUTO 31014KT 8000 FEW019 15/10 Q1017

Heure: 20:28 (18:28 UTC)


TAF: absent

Observations et prévisions météorologiques de plus de 4000 aéroports (messages METAR et TAF).

Les stations disponibles sont représentées par des disques jaunes et rouges sur la carte.

Passer la souris dessus pour voir le nom de la station.

Cliquer dessus pour voir les observations et prévisions météorologiques.

Pour changer de carte: cliquez sur les boutons verts avec une croix noire pour zoomer, sur le bouton vert avec un tiret pour effectuer un zoom arrière, ou sur les flèches vertes pour les cartes adjacentes.


METAR-TAF: